Temp
75 75 74 73 74 75 74 73 73 73 72 72 71 72 71 71 72 71 71 71 71 71 71 71 71 70 71 70 69 69 68 68 69 69 68 68 67 68 69 67 68 67
74 75 75 74 74 74 74 74 73 73 72 72 72 71 71 71 71 72 71 71 70 71 71 71 70 70 70 69 69 67 66 68 67 71 68 68 67 67 67 69 68 68
74 74 75 74 73 74 74 74 73 73 72 72 72 71 71 72 70 71 70 70 70 70 70 70 69 70 69 69 67 67 67 68 66 68 67 67 67 66 67 67 67 67
74 74 75 75 74 75 75 73 73 73 73 72 70 72 72 71 71 70 71 72 70 70 70 70 69 69 69 68 68 67 68 68 68 66 66 67 67 66 66 66 67 68
72 74 75 75 75 76 74 74 74 73 73 72 71 71 71 70 69 70 70 69 70 70 69 70 70 69 68 68 67 66 67 67 68 68 66 67 66 65 66 66 66 66
73 75 75 75 75 74 73 74 75 74 73 72 71 71 71 71 70 70 70 70 70 70 70 70 70 69 69 69 68 66 66 67 67 67 67 67 67 66 68 67 66 67
72 72 72 72 74 75 74 74 74 74 73 72 73 71 71 71 71 72 72 71 71 71 71 69 69 68 68 68 68 67 66 66 66 67 66 66 66 66 67 67 66 67
66 65 66 65 67 71 73 74 73 73 73 73 71 72 72 72 72 71 71 72 72 72 70 72 71 70 68 67 67 66 65 66 67 66 65 66 66 65 66 66 66 64
65 64 64 64 65 67 72 74 73 73 74 72 72 71 72 72 72 71 71 72 72 71 72 70 70 69 67 67 66 66 67 66 65 65 65 64 65 65 67 66 65 66
64 63 63 63 64 65 68 70 72 72 73 72 73 72 72 71 72 72 72 71 71 71 71 70 70 68 68 68 68 66 66 67 65 63 64 65 65 65 65 65 64 64
63 62 63 64 64 65 66 68 69 72 72 73 72 72 72 71 71 72 71 72 70 72 72 71 70 69 68 67 65 65 67 65 66 64 65 66 64 64 66 64 65 64
63 63 63 63 64 64 64 65 67 71 71 71 73 72 72 72 71 70 72 72 73 73 73 72 71 69 69 68 68 65 65 65 64 64 65 65 65 66 65 64 64 63
63 62 62 63 63 64 64 65 65 65 65 70 71 72 72 71 72 72 71 72 73 73 73 72 71 70 69 68 69 67 64 64 64 64 65 65 66 65 65 65 65 64
65 65 64 64 65 65 64 64 64 65 65 66 71 72 72 73 73 72 70 71 72 72 72 71 70 69 69 68 68 66 64 64 65 64 63 64 65 66 65 65 64 61
66 66 65 65 65 65 64 64 64 64 64 65 66 70 73 74 73 73 72 72 72 71 72 72 70 69 70 68 68 65 65 65 65 64 64 63 64 63 64 64 62 60
67 66 66 65 64 64 64 64 64 63 63 63 64 64 68 72 72 72 72 71 71 71 71 71 69 69 63 59 60 64 65 67 65 64 64 63 63 61 63 62 60 57
69 67 66 65 64 64 63 64 64 63 63 63 63 64 64 68 71 71 71 70 71 70 68 69 69 67 53 49 51 55 63 62 63 63 64 63 63 61 60 61 60 59
69 68 66 65 64 64 64 64 63 63 63 63 63 62 62 64 65 70 70 69 69 69 68 68 66 56 48 50 51 51 55 60 62 64 63 63 62 62 62 61 60 60
70 69 67 66 65 64 63 64 62 62 62 61 62 62 62 62 62 66 68 69 68 68 67 67 62 49 48 49 50 50 49 56 62 63 62 62 63 63 62 61 60 60
71 70 69 68 67 65 64 64 63 62 62 61 61 60 60 60 60 61 66 68 67 67 66 67 61 51 47 48 48 49 49 51 60 63 62 63 63 64 62 60 60 59
72 70 70 69 69 67 65 64 63 61 61 60 60 60 60 60 60 61 64 67 67 67 66 66 61 48 46 47 46 47 47 51 58 63 63 63 62 61 61 61 61 62
72 69 69 70 70 69 68 66 63 61 60 60 59 59 59 60 60 61 61 65 66 66 65 66 59 45 46 47 46 46 47 58 58 60 62 62 61 61 61 60 60 60
72 71 69 69 69 68 68 66 64 63 62 61 60 59 59 58 59 60 62 63 65 66 65 64 56 47 45 46 47 45 50 59 59 61 61 60 59 60 60 60 60 60
71 71 69 68 68 69 68 66 65 63 63 62 61 60 59 60 60 60 61 63 64 65 65 64 56 50 45 46 46 46 55 58 59 61 60 60 59 59 60 59 60 65
71 70 69 68 68 68 67 66 65 64 63 61 60 60 60 61 61 61 61 62 63 64 64 64 58 52 44 46 46 46 54 59 60 61 60 59 59 58 59 59 57 59
70 69 68 68 68 67 67 66 65 63 61 60 60 60 59 59 59 60 60 60 60 61 61 62 58 54 48 44 46 46 50 60 60 60 60 59 60 60 59 57 56 54
MSLP
1017.26 1017.18 1017.26 1017.30 1017.22 1017.14 1017.14 1017.26 1017.18 1017.26 1017.34 1017.38 1017.54 1017.58 1017.58 1017.66 1017.66 1017.66 1017.74 1017.70 1017.70 1017.70 1017.74 1017.82 1017.82 1017.90 1017.94 1017.94 1017.98 1018.10 1018.22 1018.22 1018.10 1018.06 1018.06 1017.98 1018.10 1018.10 1018.14 1018.22 1018.14 1018.22
1017.18 1017.10 1017.06 1017.06 1017.10 1016.94 1016.86 1016.86 1016.94 1017.06 1017.18 1017.18 1017.26 1017.34 1017.42 1017.54 1017.62 1017.54 1017.58 1017.66 1017.66 1017.66 1017.74 1017.78 1017.82 1017.86 1017.94 1018.02 1018.02 1018.22 1018.34 1018.26 1018.30 1018.10 1018.18 1018.14 1018.22 1018.22 1018.22 1018.06 1018.10 1018.02
1017.02 1017.10 1017.06 1017.02 1016.98 1016.94 1016.86 1016.82 1016.86 1016.90 1016.98 1017.06 1017.10 1017.22 1017.42 1017.42 1017.58 1017.46 1017.50 1017.54 1017.58 1017.62 1017.74 1017.82 1017.86 1017.82 1017.90 1018.02 1018.14 1018.26 1018.34 1018.34 1018.38 1018.26 1018.26 1018.30 1018.22 1018.26 1018.22 1018.22 1018.22 1018.22
1017.10 1016.98 1016.94 1016.82 1016.70 1016.78 1016.74 1016.90 1016.94 1016.86 1016.86 1017.06 1017.18 1017.18 1017.26 1017.42 1017.46 1017.50 1017.46 1017.42 1017.58 1017.66 1017.66 1017.74 1017.82 1017.90 1017.94 1017.98 1018.10 1018.34 1018.30 1018.30 1018.34 1018.38 1018.42 1018.26 1018.34 1018.38 1018.38 1018.30 1018.22 1018.18
1017.34 1017.10 1016.86 1016.78 1016.66 1016.62 1016.66 1016.90 1016.98 1016.98 1016.98 1017.02 1017.10 1017.14 1017.22 1017.38 1017.50 1017.50 1017.50 1017.58 1017.54 1017.58 1017.70 1017.74 1017.78 1017.90 1018.02 1018.14 1018.30 1018.46 1018.38 1018.42 1018.30 1018.38 1018.46 1018.38 1018.38 1018.46 1018.50 1018.46 1018.50 1018.46
1017.30 1017.06 1016.82 1016.74 1016.70 1016.66 1016.78 1016.78 1016.78 1016.86 1016.94 1017.06 1017.14 1017.14 1017.22 1017.26 1017.42 1017.46 1017.42 1017.50 1017.50 1017.58 1017.58 1017.62 1017.78 1017.86 1017.98 1018.14 1018.26 1018.46 1018.50 1018.50 1018.42 1018.46 1018.50 1018.46 1018.42 1018.50 1018.58 1018.66 1018.58 1018.54
1017.54 1017.30 1017.22 1017.30 1016.98 1016.70 1016.74 1016.66 1016.58 1016.62 1016.70 1016.86 1016.98 1017.14 1017.14 1017.26 1017.30 1017.30 1017.30 1017.34 1017.38 1017.46 1017.46 1017.58 1017.70 1017.90 1017.98 1018.18 1018.26 1018.42 1018.46 1018.54 1018.58 1018.58 1018.58 1018.50 1018.42 1018.54 1018.62 1018.70 1018.74 1018.70
1018.54 1018.06 1018.22 1018.98 1018.94 1017.42 1016.82 1016.70 1016.66 1016.58 1016.58 1016.70 1016.98 1017.02 1017.02 1017.22 1017.26 1017.22 1017.22 1017.26 1017.30 1017.30 1017.42 1017.50 1017.58 1017.74 1017.98 1018.18 1018.30 1018.34 1018.54 1018.62 1018.70 1018.74 1018.74 1018.66 1018.66 1018.74 1018.70 1018.82 1018.86 1018.94
1019.26 1019.46 1019.06 1019.30 1019.18 1018.42 1017.18 1016.86 1016.78 1016.66 1016.58 1016.78 1016.90 1016.98 1016.94 1017.06 1017.14 1017.14 1017.26 1017.22 1017.26 1017.26 1017.34 1017.50 1017.62 1017.74 1017.98 1018.22 1018.38 1018.46 1018.50 1018.54 1018.62 1018.74 1018.78 1018.82 1018.78 1018.74 1018.62 1018.74 1018.86 1018.90
1018.62 1018.26 1018.42 1018.30 1018.62 1018.62 1018.14 1017.34 1016.90 1016.86 1016.74 1016.86 1016.86 1016.86 1016.98 1016.98 1017.02 1017.10 1017.22 1017.26 1017.26 1017.30 1017.38 1017.46 1017.62 1017.82 1018.02 1018.18 1018.26 1018.42 1018.50 1018.50 1018.50 1018.62 1018.74 1018.74 1018.74 1018.66 1018.66 1018.78 1018.86 1018.98
1017.70 1017.34 1017.30 1017.50 1017.70 1018.14 1018.54 1018.14 1017.58 1017.02 1016.90 1016.94 1016.98 1016.98 1016.90 1017.02 1017.10 1017.06 1017.18 1017.26 1017.34 1017.30 1017.34 1017.46 1017.58 1017.70 1017.94 1018.14 1018.30 1018.50 1018.54 1018.58 1018.58 1018.58 1018.62 1018.62 1018.66 1018.78 1018.86 1018.90 1018.98 1019.06
1017.38 1017.46 1017.38 1017.38 1017.58 1017.66 1018.14 1018.74 1018.30 1017.38 1017.22 1017.10 1016.98 1017.06 1016.94 1016.90 1017.06 1017.14 1017.18 1017.22 1017.22 1017.22 1017.18 1017.26 1017.42 1017.58 1017.78 1017.94 1018.18 1018.46 1018.54 1018.58 1018.58 1018.62 1018.62 1018.58 1018.70 1018.66 1018.78 1018.90 1019.06 1019.10
1017.46 1017.42 1017.38 1017.42 1017.58 1017.70 1017.70 1018.06 1018.50 1018.54 1018.62 1017.94 1017.14 1016.98 1016.94 1016.94 1016.94 1017.06 1017.02 1017.10 1017.02 1017.02 1017.14 1017.10 1017.30 1017.50 1017.74 1017.90 1018.06 1018.26 1018.50 1018.62 1018.66 1018.66 1018.70 1018.70 1018.66 1018.66 1018.78 1018.86 1018.90 1019.06
1017.42 1017.26 1017.26 1017.34 1017.54 1017.46 1017.30 1017.38 1017.82 1018.42 1018.78 1018.74 1017.78 1017.10 1016.90 1016.86 1016.90 1016.94 1016.94 1016.98 1016.90 1016.86 1016.94 1016.98 1017.22 1017.50 1017.70 1017.94 1018.02 1018.18 1018.42 1018.58 1018.62 1018.66 1018.70 1018.78 1018.74 1018.74 1018.78 1018.90 1019.10 1019.50
1017.42 1017.30 1017.22 1017.22 1017.34 1017.38 1017.38 1017.34 1017.58 1017.90 1018.58 1018.78 1018.30 1017.38 1016.66 1016.62 1016.62 1016.78 1016.94 1017.10 1016.94 1016.86 1016.86 1016.94 1017.22 1017.50 1017.66 1017.82 1017.98 1018.22 1018.42 1018.54 1018.58 1018.66 1018.70 1018.78 1018.82 1018.90 1018.90 1018.98 1019.42 1019.74
1017.30 1017.26 1017.26 1017.34 1017.34 1017.38 1017.38 1017.34 1017.26 1017.34 1017.46 1017.94 1018.38 1018.26 1017.38 1016.50 1016.54 1016.66 1016.86 1017.02 1017.10 1016.98 1016.90 1016.98 1017.22 1017.42 1017.74 1017.90 1018.14 1018.30 1018.46 1018.46 1018.54 1018.62 1018.70 1018.74 1018.86 1018.94 1019.02 1019.22 1019.62 1020.02
1017.26 1017.38 1017.38 1017.46 1017.50 1017.50 1017.54 1017.38 1017.22 1017.06 1017.02 1017.14 1017.50 1017.98 1018.06 1017.14 1016.58 1016.78 1016.86 1016.90 1016.98 1016.98 1017.06 1017.14 1017.18 1017.50 1017.74 1017.94 1018.18 1018.38 1018.54 1018.58 1018.66 1018.78 1018.70 1018.78 1018.94 1019.10 1019.18 1019.38 1019.66 1020.02
1017.38 1017.42 1017.46 1017.42 1017.46 1017.58 1017.50 1017.34 1017.18 1017.18 1017.10 1017.14 1017.22 1017.38 1017.78 1017.90 1017.78 1016.98 1016.90 1016.86 1016.86 1016.86 1016.98 1017.10 1017.34 1017.62 1017.70 1017.90 1018.14 1018.38 1018.62 1018.78 1018.74 1018.74 1018.82 1018.90 1018.90 1019.02 1019.10 1019.22 1019.50 1019.70
1017.34 1017.42 1017.50 1017.42 1017.38 1017.42 1017.38 1017.22 1017.18 1017.10 1017.02 1017.10 1017.14 1016.94 1017.18 1017.70 1018.26 1017.62 1016.98 1016.78 1016.82 1016.86 1016.94 1016.98 1017.42 1017.66 1017.70 1017.86 1018.10 1018.38 1018.62 1018.82 1018.86 1018.74 1018.86 1018.86 1018.86 1018.90 1018.94 1019.18 1019.34 1019.50
1017.34 1017.34 1017.42 1017.34 1017.18 1017.18 1017.18 1017.14 1017.06 1017.10 1017.06 1016.94 1016.94 1016.82 1016.78 1017.18 1017.34 1017.26 1016.94 1016.66 1016.70 1016.78 1016.82 1016.86 1017.38 1017.66 1017.66 1017.86 1018.10 1018.34 1018.58 1018.82 1018.98 1018.82 1018.78 1018.78 1018.78 1018.78 1018.90 1019.10 1019.26 1019.46
1017.22 1017.30 1017.26 1017.18 1017.10 1017.14 1017.14 1017.22 1017.22 1017.14 1017.06 1017.10 1017.18 1016.90 1016.70 1016.74 1016.94 1016.98 1016.86 1016.58 1016.54 1016.58 1016.74 1016.78 1017.26 1017.54 1017.62 1017.78 1018.02 1018.30 1018.54 1018.86 1018.98 1018.90 1018.74 1018.74 1018.74 1018.82 1018.98 1019.10 1019.22 1019.30
1017.18 1017.38 1017.30 1017.18 1017.06 1017.06 1017.06 1017.14 1017.34 1017.30 1017.22 1017.10 1017.14 1017.06 1016.82 1016.70 1016.66 1016.74 1016.86 1016.70 1016.42 1016.46 1016.66 1016.70 1017.18 1017.50 1017.58 1017.70 1017.90 1018.18 1018.54 1018.82 1018.94 1018.90 1018.74 1018.78 1018.86 1018.94 1019.06 1019.14 1019.22 1019.34
1017.54 1017.58 1017.54 1017.42 1017.18 1017.10 1017.06 1017.14 1017.26 1017.22 1017.22 1017.18 1017.22 1017.14 1017.10 1016.98 1016.86 1016.78 1016.62 1016.50 1016.34 1016.26 1016.46 1016.62 1017.14 1017.58 1017.50 1017.62 1017.82 1018.14 1018.46 1018.70 1018.86 1018.78 1018.70 1018.78 1018.90 1018.98 1019.06 1019.18 1019.30 1019.34
1017.66 1017.78 1017.86 1017.66 1017.42 1017.18 1017.26 1017.30 1017.30 1017.22 1017.22 1017.26 1017.42 1017.38 1017.26 1016.98 1016.74 1016.62 1016.58 1016.58 1016.46 1016.26 1016.18 1016.46 1016.98 1017.54 1017.58 1017.54 1017.70 1017.98 1018.14 1018.50 1018.70 1018.62 1018.58 1018.70 1018.86 1018.98 1019.02 1019.10 1019.26 1019.34
1017.70 1017.82 1017.86 1017.74 1017.54 1017.38 1017.30 1017.34 1017.34 1017.22 1017.10 1017.10 1017.18 1017.22 1017.34 1017.14 1016.82 1016.70 1016.62 1016.70 1016.66 1016.46 1016.26 1016.30 1016.90 1017.58 1017.78 1017.54 1017.62 1017.82 1018.02 1018.30 1018.46 1018.46 1018.46 1018.58 1018.78 1018.98 1018.98 1019.14 1019.34 1019.42
1017.70 1017.78 1017.78 1017.74 1017.58 1017.42 1017.30 1017.26 1017.18 1017.18 1017.06 1016.74 1016.70 1016.94 1017.10 1017.22 1017.26 1017.10 1016.82 1016.54 1016.58 1016.74 1016.90 1016.90 1016.82 1017.30 1017.82 1017.74 1017.58 1017.70 1017.78 1017.98 1018.26 1018.34 1018.30 1018.46 1018.58 1018.82 1018.98 1019.10 1019.34 1019.62
Wind_Speed
5 4 5 5 4 4 4 4 3 4 4 4 2 4 3 3 2 1 1 0 2 2 1 1 1 2 0 2 1 3 2 3 2 2 3 3 4 4 1 2 1 2
6 5 4 4 4 4 3 4 4 4 4 3 3 4 3 3 2 3 3 2 4 1 2 2 1 2 1 2 2 2 1 2 3 2 3 2 3 4 3 1 1 2
5 5 6 5 5 5 4 4 3 4 4 4 3 4 4 2 4 2 3 3 2 2 3 3 4 1 3 1 4 2 1 2 1 2 3 3 3 4 3 5 4 4
7 7 6 6 5 5 5 4 4 3 3 4 4 3 4 4 3 3 2 0 0 1 1 2 3 3 5 3 1 2 1 0 1 3 5 1 2 4 4 4 2 1
8 7 7 6 6 5 5 6 6 5 4 4 5 4 4 4 3 4 3 4 3 3 3 4 3 1 3 1 3 1 1 2 1 0 3 1 3 2 3 5 4 3
7 8 8 8 7 7 6 7 7 7 6 5 5 4 4 4 4 4 3 4 4 3 3 2 2 3 2 0 1 1 2 4 2 1 3 2 1 3 1 2 3 2
7 7 7 7 8 8 7 6 5 6 6 5 5 4 4 4 4 5 5 3 4 3 3 4 3 2 2 0 1 2 1 1 3 3 3 2 2 2 2 1 3 5
9 10 8 10 15 10 6 6 5 4 5 6 5 5 4 5 5 3 3 4 3 3 4 1 2 3 4 1 2 2 3 2 0 1 2 2 1 2 1 1 1 3
6 8 10 11 13 13 7 6 5 4 4 5 5 5 4 3 3 3 3 3 3 2 2 3 2 3 3 2 1 1 1 2 3 1 0 2 1 3 0 3 2 0
3 6 9 9 10 11 11 7 4 3 2 3 4 4 5 3 3 3 3 2 3 3 3 2 2 3 3 2 1 2 1 1 2 3 2 1 2 2 3 3 3 2
7 7 7 7 6 7 11 10 7 3 2 4 4 4 4 5 3 3 3 4 3 3 3 4 3 3 3 4 3 1 0 1 1 2 1 0 3 3 2 2 2 1
5 5 5 6 4 4 5 9 11 4 3 3 4 5 4 4 4 3 3 4 4 4 3 4 4 3 3 3 5 4 1 0 1 1 2 1 2 0 2 3 0 3
4 4 4 5 3 2 2 2 10 7 7 7 4 4 4 4 4 5 4 4 5 4 3 2 4 4 2 3 2 4 3 3 2 1 1 1 1 2 2 1 1 3
3 4 3 3 0 1 2 2 5 7 5 9 9 5 5 6 5 4 3 3 3 3 3 2 4 3 3 3 2 4 2 2 2 1 2 2 1 1 2 2 4 8
2 2 3 2 1 1 0 1 1 5 4 8 12 8 5 5 4 4 4 4 4 2 2 2 4 3 2 2 1 4 3 2 2 2 2 2 2 3 1 2 8 5
4 5 4 3 1 1 1 1 2 4 3 4 8 10 9 3 3 3 3 3 3 3 3 2 3 2 7 11 8 3 2 3 2 1 1 2 2 3 2 6 7 5
5 5 4 3 2 1 1 2 3 4 4 4 4 8 10 7 3 2 2 3 3 3 3 2 3 5 11 12 10 7 4 1 2 1 0 2 2 2 2 5 6 6
5 4 4 4 3 3 3 1 1 1 2 2 1 3 8 9 9 4 2 3 3 3 3 3 3 9 12 12 10 7 4 2 2 1 1 1 3 3 3 4 5 6
5 5 4 5 3 2 2 1 2 2 1 3 3 3 3 2 5 10 4 3 3 3 3 3 5 9 12 12 10 8 4 1 2 2 2 3 2 3 3 4 4 3
6 6 5 5 5 3 2 2 1 1 0 2 4 4 5 4 5 7 8 4 4 4 4 4 8 9 13 12 11 9 6 2 2 2 2 2 2 1 3 3 4 3
5 7 7 7 5 4 3 2 2 2 1 2 3 2 4 5 5 6 7 5 4 4 4 3 7 13 13 13 12 10 8 3 2 3 3 1 2 3 2 3 2 3
12 5 7 8 8 5 5 3 1 2 3 3 3 3 2 3 4 5 6 7 5 5 5 4 8 14 14 14 13 11 10 3 2 4 2 2 3 3 3 2 1 2
12 12 11 11 10 6 6 4 3 2 2 3 3 3 3 3 4 5 7 7 6 6 7 4 8 12 14 15 14 13 9 4 3 4 3 3 3 3 3 3 3 2
10 11 12 11 12 10 6 6 4 2 3 2 3 4 5 5 6 5 5 6 6 7 8 5 8 12 14 15 15 14 11 6 5 4 4 4 3 3 3 3 3 4
7 8 9 10 10 10 7 3 2 3 3 2 2 4 5 6 6 5 5 4 7 7 8 5 7 10 13 14 15 15 11 5 5 4 4 4 4 4 3 5 3 4
8 6 6 7 9 8 5 3 2 0 1 3 3 2 4 6 7 6 5 5 3 5 6 4 6 9 12 14 15 15 14 9 5 5 4 6 4 5 4 4 5 3
Wind_Direction
231 225 214 223 240 226 189 197 198 187 182 179 171 190 145 130 171 188 172 25 16 210 172 113 340 29 303 283 49 64 331 350 342 346 327 359 353 353 59 352 59 64
236 237 220 215 222 230 211 203 192 194 178 169 181 140 134 151 171 239 144 175 194 97 24 342 41 210 76 266 85 67 335 332 332 13 320 356 29 340 328 329 305 114
241 234 236 227 211 214 215 198 211 198 173 177 158 146 143 186 153 239 147 214 186 156 160 189 219 179 207 58 52 3 289 328 13 334 318 39 343 328 333 356 24 23
252 237 234 239 230 221 204 194 214 206 166 168 147 173 159 153 202 188 201 134 38 149 188 47 27 322 38 31 89 346 322 255 66 2 316 274 48 360 350 355 336 88
253 250 236 235 236 230 203 203 209 202 194 166 162 180 164 157 199 180 196 172 238 144 169 203 164 160 84 16 69 311 292 289 159 84 300 309 101 45 342 355 348 9
259 261 250 239 232 223 209 209 207 199 193 171 177 164 180 173 180 196 199 195 176 203 182 121 207 105 129 105 159 128 333 327 70 160 268 315 144 134 21 315 298 261
263 264 282 300 261 223 222 212 213 197 181 171 166 181 187 178 197 188 202 185 204 175 222 169 160 159 117 197 206 168 155 33 359 348 330 301 27 104 166 287 347 330
353 329 349 300 286 266 220 220 222 206 169 170 176 188 189 176 203 191 218 191 216 200 159 265 133 150 126 138 281 107 145 151 187 303 301 319 31 326 116 146 306 323
343 348 317 306 291 280 246 223 221 219 179 177 181 180 185 182 213 167 207 227 190 226 150 160 186 121 107 107 179 224 255 147 145 220 359 327 282 252 277 99 244 57
170 195 254 277 293 298 304 263 232 220 202 185 194 181 175 184 207 194 191 227 237 178 183 157 149 123 139 170 62 37 15 11 115 148 197 213 275 6 35 10 37 18
199 207 212 249 270 288 290 304 294 240 205 201 203 200 192 171 187 218 196 201 222 217 185 162 177 152 156 147 139 160 173 119 223 66 36 8 45 62 13 359 37 91
215 226 233 241 261 274 289 300 298 282 209 227 217 208 213 172 183 192 209 219 203 215 221 174 175 156 151 159 133 139 141 53 37 146 203 132 129 43 118 117 175 33
251 260 255 263 264 236 243 280 281 282 300 274 252 225 211 198 187 185 190 227 205 191 223 184 162 148 137 99 137 139 157 153 174 141 105 81 159 136 135 84 45 75
294 295 288 273 250 154 154 201 283 305 305 290 279 250 222 205 205 191 180 215 248 194 201 176 126 131 139 144 193 118 115 125 155 204 136 137 183 99 78 121 81 68
269 248 263 275 275 229 183 72 32 312 288 278 285 271 234 224 191 192 182 198 232 222 206 152 132 136 174 171 160 118 123 189 150 188 143 163 138 117 170 102 75 80
339 332 340 351 6 29 47 86 192 195 232 269 277 273 275 242 213 193 188 195 213 217 211 149 140 132 102 86 65 75 145 189 150 105 211 128 132 96 91 82 96 95
357 353 342 354 360 5 151 236 205 184 199 232 302 318 278 261 260 205 215 201 207 215 182 162 147 123 123 110 99 71 36 358 120 202 289 108 104 151 128 119 122 128
360 350 344 344 360 11 349 245 199 186 175 138 62 10 334 335 308 294 232 218 209 223 178 184 122 138 130 125 117 104 73 15 298 148 140 167 188 151 152 137 135 148
347 358 353 344 344 358 309 284 211 198 141 92 129 162 124 69 310 294 269 234 207 237 197 180 129 156 140 137 138 133 121 67 281 174 174 221 166 189 152 127 134 125
354 358 1 353 338 338 334 350 357 91 54 190 181 161 144 162 197 252 265 230 204 225 219 175 144 165 149 145 144 150 150 168 298 236 202 216 193 156 107 128 133 147
358 22 359 0 352 345 336 345 26 16 65 360 319 207 169 175 202 235 257 243 211 211 225 182 160 166 158 152 151 156 155 140 268 285 219 210 130 95 106 113 136 148
5 42 358 356 1 2 350 350 117 187 218 213 226 274 256 187 215 229 244 250 224 206 222 199 160 169 162 158 154 160 146 161 222 257 211 167 132 125 118 123 113 115
13 9 6 352 345 345 359 346 348 313 246 223 232 249 252 255 247 234 236 242 230 212 207 194 145 180 167 162 160 157 146 172 220 228 203 163 153 144 163 153 160 156
15 9 356 350 340 347 354 11 345 320 318 345 291 275 262 252 249 245 255 259 257 234 207 192 170 181 178 166 163 162 162 171 214 210 198 161 154 160 174 160 118 140
21 4 352 341 342 351 5 5 7 351 314 307 286 297 294 279 257 255 261 285 294 279 237 196 162 181 186 174 168 169 168 179 205 222 191 162 161 166 192 129 123 79
5 360 347 338 335 347 356 344 327 121 291 301 306 284 261 277 294 289 278 261 281 304 314 284 170 173 187 186 177 176 177 178 201 237 201 169 173 165 190 151 123 92